loading
DOY 198 | 2024-07-16T13:42:26Z

STARLINK-31865, 59791

Orbit data source: Space-Track

STARLINK-31865, 59791 is a payload satellite owned by SpaceX/Seattle (US) in LEO that was launched on Sat, 18 May 2024 UTC via a Falcon 9 launch vehicle from the Air Force Eastern Test Range (AFETR). Payloads include a variety of satellites, spacecraft, and rockets equipped with specific instruments for various scientific and technological missions. These include communications satellites like Starlink; space stations such as the ISS; scientific satellites like the Hubble; Earth observation satellites from companies like Planet Labs, Umbra, and HawkEye 360; GPS; miniature CubeSats for education and research; and military/defense satellites.

Loading next visibility...
Loading greatness...
STARLINK-31865 details
NORAD ID59791
COSPAR ID
2024-093K
Orbit
LEO
Last TLE update23 hours ago
Origin
Flag of USSpaceX/Seattle (US)
ManufacturerSpaceX/Seattle
BusStarlink V2M
MotorUnknown
Mass750 kg wet, ~700 kg dry
Launch date (UTC)
2024-05-18 (2 months ago)
Launch vehicle
Falcon 9
Launch site
Air Force Eastern Test Range (AFETR)
Object type
Payload
Rocket body
Debris
Radar Cross SectionLarge (>1 m²)
Predictive object data (real-time)
Latitude1.41691°
Longitude-118.30084°
Altitude443.554 km
Speed7.648 km/s
Apparent Right ascension01h 20m 39s
Apparent Declination-63° 12' 54"
Sunlit
Object is in daylight
Predictive observer data (real-time)
Local Sidereal Time02:21:31
Azimuth186.997° SSW
Elevation-13.845°
Doppler factor1
Orbital elements
Apogee447.089 km
Perigee444.9 km
Semi-major axis6,824.131 km
Eccentricity0.0001604
Inclination43.0029°
RAAN35.1279°
Arg. of periapsis270.111°
True anomaly89.97468°
Mean anomaly89.9563°
Mean motion3.8501 °/min
BSTAR0.000011782
Period93.5 mins
Definitive object data (Epoch: 2024-07-15T14:21:36.931Z)
Latitude0.00002°
Longitude-114.20523°
Altitude443.812 km
Speed7.648 km/s
True Right ascension02h 20m 30s
True Declination0° 00' 00"
Sunlit
Object was in daylight at TLE epoch
TLE from 23 hours ago
0 STARLINK-31865
1 59791U 24093K   24197.59834411  .00000189  00000-0  11782-4 0  9998
2 59791  43.0029  35.1279 0001604 270.1110  89.9563 15.40701210 10317
Epoch: 2024-07-15T14:21Z
No data available

STARLINK-31865 Visibility forecast

Observer location: 39.9160978°, -105.1181434

STARLINK-31865 is not visible in the next 10 days
Span
Click to sort rows by Start time (UTC) header in descending order
Start Az.
Max El. time (UTC)
Max El. Az.
Max El.
End time (UTC)
End Az.